sat.trackr.live / text

‹ back to catalog

2026-027C

NORAD 67748 · 2026-027C

PAYLOAD ACTIVE UNKNOWN

§ Identity

Operator
Country
PRC
Launch date
2026-02-12
Launch site
SCSLA
Launch vehicle
Mass (kg)
RCS (m²)

External: N2YO · Heavens-Above · Gunter

§ Orbital elements

Epoch: 2026-09-20T07:45:11.090592Z

Period
94.77 min
Inclination
97.5187°
Eccentricity
0.0009171
Mean motion
15.19539917 rev/d
Perigee alt
500.9 km
Apogee alt
513.5 km
Semi-major
6,885.4 km
B*
1.4576e-4
RAAN
30.9759°
Arg perigee
244.8493°
Mean anomaly
115.1791°
Rev number
3,340

§ Raw data

2026-027C1 67748U 26027C   26263.32304503  .00003031  00000+0  14576-3 0  99902 67748  97.5187  30.9759 0009171 244.8493 115.1791 15.19539917 33401

JSON: /api/v1/satellites/67748 · /tle

For live sub-satellite position, see the globe view (requires WebGL).

§ Visibility from observer

Set your observer location to see the next 7 days of passes ≥ 10°. The values pass through the URL so the page stays shareable.

No JS? Fill the form by hand. The geolocation button needs JavaScript.

§ Radio — SatNOGS DB

ModeDescriptionDownlinkUplink
BPSK S-band telemetry 2.242 GHz

1 transmitter · refreshed weekly from db.satnogs.org